Hourly Weather Bolshoe Vyzhlyatnikovo

Today, 6 August, Friday

Time Temperature Precipitation Wind Pressure Humidity
00:00 +11°C° 0 mm 0 mps 735 mmHg 98%
01:00 +11°C° 0 mm 0 mps 735 mmHg 98%
02:00 +11°C° 0 mm 0 mps 735 mmHg 98%
03:00 +11°C° 0 mm 0 mps 735 mmHg 98%
04:00 +12°C° 0 mm 1 mps 735 mmHg 98%
05:00 +12°C° 0 mm 1 mps 735 mmHg 99%
06:00 +13°C° 0 mm 1 mps 734 mmHg 96%
07:00 +15°C° 0 mm 2 mps 734 mmHg 93%
08:00 +16°C° 0 mm 2 mps 734 mmHg 91%
09:00 +17°C° 0 mm 2 mps 734 mmHg 84%
10:00 +19°C° 0 mm 2 mps 734 mmHg 78%
11:00 +20°C° 0 mm 2 mps 734 mmHg 72%
12:00 +20°C° 0.2 mm 2 mps 734 mmHg 76%
13:00 +19°C° 0.2 mm 2 mps 734 mmHg 80%
14:00 +19°C° 0.2 mm 2 mps 733 mmHg 84%
15:00 +19°C° 0.9 mm 3 mps 733 mmHg 88%
16:00 +18°C° 0.9 mm 3 mps 733 mmHg 93%
17:00 +17°C° 0.9 mm 3 mps 733 mmHg 98%
18:00 +17°C° 1 mm 3 mps 733 mmHg 98%
19:00 +17°C° 1 mm 3 mps 733 mmHg 98%
20:00 +17°C° 1 mm 3 mps 732 mmHg 98%
21:00 +17°C° 0.3 mm 3 mps 732 mmHg 98%
22:00 +17°C° 0.3 mm 4 mps 732 mmHg 98%
23:00 +17°C° 0.3 mm 4 mps 732 mmHg 98%

Tomorrow, 7 August, Saturday

Time Temperature Precipitation Wind Pressure Humidity
00:00 +17°C° 0.5 mm 4 mps 732 mmHg 98%
01:00 +17°C° 0.5 mm 4 mps 731 mmHg 98%
02:00 +17°C° 0.5 mm 4 mps 731 mmHg 98%
03:00 +17°C° 0 mm 4 mps 731 mmHg 97%
04:00 +17°C° 0 mm 4 mps 731 mmHg 97%
05:00 +17°C° 0 mm 4 mps 731 mmHg 96%
06:00 +17°C° 0.1 mm 4 mps 731 mmHg 96%
07:00 +17°C° 0.1 mm 3 mps 731 mmHg 96%
08:00 +17°C° 0.1 mm 3 mps 731 mmHg 96%
09:00 +17°C° 0.4 mm 3 mps 731 mmHg 95%
10:00 +18°C° 0.4 mm 3 mps 731 mmHg 94%
11:00 +18°C° 0.4 mm 3 mps 731 mmHg 94%
12:00 +19°C° 0.1 mm 3 mps 731 mmHg 88%
13:00 +21°C° 0.1 mm 3 mps 731 mmHg 83%
14:00 +22°C° 0.1 mm 3 mps 731 mmHg 77%
15:00 +22°C° 0.3 mm 3 mps 731 mmHg 81%
16:00 +21°C° 0.3 mm 3 mps 731 mmHg 85%
17:00 +20°C° 0.3 mm 3 mps 731 mmHg 88%
18:00 +19°C° 0 mm 3 mps 732 mmHg 90%
19:00 +17°C° 0 mm 2 mps 732 mmHg 92%
20:00 +16°C° 0 mm 2 mps 732 mmHg 95%
21:00 +15°C° 0 mm 2 mps 732 mmHg 95%
22:00 +14°C° 0 mm 2 mps 733 mmHg 96%
23:00 +13°C° 0 mm 1 mps 733 mmHg 96%

Day after tomorrow, 8 August, Sunday

Time Temperature Precipitation Wind Pressure Humidity
00:00 +13°C° 0 mm 2 mps 733 mmHg 96%
01:00 +13°C° 0 mm 2 mps 734 mmHg 97%
02:00 +12°C° 0 mm 2 mps 734 mmHg 97%
03:00 +13°C° 0 mm 2 mps 734 mmHg 96%
04:00 +14°C° 0 mm 2 mps 734 mmHg 95%
05:00 +14°C° 0 mm 2 mps 734 mmHg 94%
06:00 +15°C° 0 mm 2 mps 734 mmHg 94%
07:00 +15°C° 0 mm 2 mps 735 mmHg 93%
08:00 +15°C° 0 mm 2 mps 735 mmHg 93%
09:00 +16°C° 0 mm 2 mps 736 mmHg 87%
10:00 +18°C° 0 mm 2 mps 736 mmHg 82%
11:00 +19°C° 0 mm 3 mps 736 mmHg 77%
12:00 +20°C° 0 mm 2 mps 737 mmHg 71%
13:00 +21°C° 0 mm 2 mps 737 mmHg 65%
14:00 +23°C° 0 mm 2 mps 737 mmHg 59%
15:00 +21°C° 0 mm 2 mps 737 mmHg 63%
16:00 +22°C° 0 mm 1 mps 738 mmHg 67%
17:00 +22°C° 0 mm 1 mps 738 mmHg 71%
18:00 +21°C° 0 mm 1 mps 738 mmHg 74%
19:00 +20°C° 0 mm 1 mps 738 mmHg 76%
20:00 +19°C° 0 mm 1 mps 738 mmHg 79%
21:00 +18°C° 0 mm 1 mps 738 mmHg 84%
22:00 +16°C° 0 mm 1 mps 739 mmHg 89%
23:00 +16°C° 0 mm 2 mps 739 mmHg 94%

9 August, Monday

Time Temperature Precipitation Wind Pressure Humidity
00:00 +15°C° 0 mm 2 mps 739 mmHg 95%
01:00 +15°C° 0 mm 2 mps 739 mmHg 95%
02:00 +15°C° 0 mm 2 mps 739 mmHg 96%
03:00 +15°C° 0 mm 2 mps 739 mmHg 95%
04:00 +15°C° 0 mm 2 mps 739 mmHg 95%
05:00 +15°C° 0 mm 2 mps 739 mmHg 94%
06:00 +17°C° 0 mm 2 mps 739 mmHg 85%
07:00 +19°C° 0 mm 3 mps 739 mmHg 75%
08:00 +21°C° 0 mm 3 mps 739 mmHg 66%
09:00 +22°C° 0 mm 3 mps 739 mmHg 61%
10:00 +25°C° 0 mm 3 mps 739 mmHg 56%
11:00 +27°C° 0 mm 3 mps 739 mmHg 51%
12:00 +27°C° 0 mm 4 mps 739 mmHg 50%
13:00 +28°C° 0 mm 4 mps 739 mmHg 48%
14:00 +29°C° 0 mm 4 mps 739 mmHg 46%
15:00 +28°C° 0.1 mm 3 mps 739 mmHg 52%
16:00 +27°C° 0.1 mm 2 mps 739 mmHg 59%
17:00 +26°C° 0.1 mm 2 mps 739 mmHg 66%
18:00 +24°C° 0.3 mm 1 mps 739 mmHg 73%
19:00 +22°C° 0.3 mm 1 mps 739 mmHg 81%
20:00 +21°C° 0.3 mm 1 mps 739 mmHg 88%
21:00 +20°C° 0.8 mm 1 mps 739 mmHg 91%
22:00 +19°C° 0.8 mm 1 mps 739 mmHg 94%
23:00 +19°C° 0.8 mm 1 mps 739 mmHg 98%

10 August, Tuesday

Time Temperature Precipitation Wind Pressure Humidity
00:00 +19°C° 1 mm 1 mps 740 mmHg 98%
01:00 +18°C° 1 mm 1 mps 740 mmHg 98%
02:00 +18°C° 1 mm 1 mps 740 mmHg 98%
03:00 +18°C° 0.2 mm 1 mps 740 mmHg 98%
04:00 +18°C° 0.2 mm 1 mps 740 mmHg 98%
05:00 +18°C° 0.2 mm 1 mps 740 mmHg 98%
06:00 +18°C° 0.3 mm 1 mps 740 mmHg 96%
07:00 +19°C° 0.3 mm 1 mps 740 mmHg 95%
08:00 +20°C° 0.3 mm 1 mps 740 mmHg 93%
09:00 +21°C° 0.1 mm 1 mps 740 mmHg 89%
10:00 +22°C° 0.1 mm 1 mps 740 mmHg 85%
11:00 +22°C° 0.1 mm 1 mps 740 mmHg 81%
12:00 +23°C° 0.5 mm 1 mps 740 mmHg 79%
13:00 +24°C° 0.5 mm 1 mps 740 mmHg 76%
14:00 +25°C° 0.5 mm 1 mps 740 mmHg 73%
15:00 +24°C° 0.2 mm 1 mps 739 mmHg 73%
16:00 +24°C° 0.2 mm 1 mps 739 mmHg 73%
17:00 +24°C° 0.2 mm 1 mps 739 mmHg 73%
18:00 +23°C° 0.9 mm 1 mps 739 mmHg 80%
19:00 +21°C° 0.9 mm 1 mps 739 mmHg 87%
20:00 +19°C° 0.9 mm 1 mps 738 mmHg 94%
21:00 +19°C° 0.5 mm 1 mps 738 mmHg 95%
22:00 +18°C° 0.5 mm 1 mps 738 mmHg 96%
23:00 +18°C° 0.5 mm 1 mps 738 mmHg 97%

11 August, Wednesday

Time Temperature Precipitation Wind Pressure Humidity
00:00 +18°C° 0.4 mm 1 mps 738 mmHg 97%
01:00 +18°C° 0.4 mm 1 mps 738 mmHg 98%
02:00 +16°C° 0.4 mm 1 mps 738 mmHg 98%
03:00 +16°C° 0.4 mm 1 mps 738 mmHg 98%
04:00 +16°C° 0.4 mm 1 mps 738 mmHg 98%
05:00 +16°C° 0.4 mm 1 mps 738 mmHg 98%
06:00 +19°C° 0.3 mm 1 mps 738 mmHg 96%
07:00 +20°C° 0.3 mm 1 mps 738 mmHg 93%
08:00 +21°C° 0.3 mm 1 mps 738 mmHg 91%
09:00 +21°C° 0.2 mm 1 mps 738 mmHg 90%
10:00 +22°C° 0.2 mm 1 mps 738 mmHg 88%
11:00 +22°C° 0.2 mm 1 mps 738 mmHg 87%
12:00 +22°C° 0.5 mm 1 mps 737 mmHg 86%
13:00 +22°C° 0.5 mm 1 mps 737 mmHg 85%
14:00 +23°C° 0.5 mm 1 mps 737 mmHg 84%
15:00 +23°C° 0.3 mm 1 mps 737 mmHg 84%
16:00 +23°C° 0.3 mm 1 mps 737 mmHg 84%
17:00 +23°C° 0.3 mm 1 mps 736 mmHg 84%
18:00 +22°C° 0.8 mm 1 mps 736 mmHg 88%
19:00 +21°C° 0.8 mm 1 mps 736 mmHg 92%
20:00 +18°C° 0.8 mm 2 mps 736 mmHg 96%
21:00 +18°C° 0.8 mm 2 mps 735 mmHg 97%
22:00 +18°C° 0.8 mm 2 mps 735 mmHg 97%
23:00 +17°C° 0.8 mm 2 mps 735 mmHg 98%
Show more

We Need Your Consent

Meteoprog and our Service Providers may store and access personal data such as cookies, device identifiers or other similar technologies on your device and process such data to personalise content and ads, as well as provide social media features and to analyse the traffic.

  • Store and/or access information on your device

    Cookies, device identifiers or other information can be stored or accessed on your device for the purposes indicated above.

  • Personalised ads and content, ad and content measurement, audience insights, and products development

    Ads and content can be personalised based on a profile. More data can be added to better personalise ads and content. Ad and content performance can be measured. Insights about the audience who saw the ads and content can be derived. Such data can be used to develop or improve user’s experience, systems and software.

By clicking ‘I Agree’ you will allow the use of indicated cookies, device identifiers, web beacons or other similar technologies. Your settings can be changed in the browser on your device.

For certain purposes, legitimate interests may be relied on, rather than consent. You can read more about this in our Privacy and Cookie Policy.